| time (UTC) | temp F | wind direction | speed MPH | gust MPH | rain 1hr in | rain 24hr in | rain mn in | humidity % | barometer mb |
| 20260505004018 | 68 | 160 | 3.0 | 7.0 | 0.00 | 0.00 | 0.00 | 48 | 1009.8 |
| 20260505003018 | 69 | 157 | 4.0 | 8.0 | 0.00 | 0.00 | 0.00 | 47 | 1009.8 |
| 20260505002015 | 69 | 162 | 4.0 | 9.0 | 0.00 | 0.00 | 0.00 | 47 | 1009.8 |
| 20260505001016 | 70 | 163 | 3.0 | 6.0 | 0.00 | 0.00 | 0.00 | 46 | 1009.8 |
| 20260505000016 | 70 | 161 | 4.0 | 9.0 | 0.00 | 0.00 | 0.00 | 45 | 1009.8 |
| 20260504235016 | 70 | 168 | 4.0 | 7.0 | 0.00 | 0.00 | 0.00 | 44 | 1009.9 |
| 20260504234016 | 71 | 163 | 4.0 | 9.0 | 0.00 | 0.00 | 0.00 | 44 | 1009.8 |
| 20260504233016 | 71 | 164 | 5.0 | 8.0 | 0.00 | 0.00 | 0.00 | 43 | 1009.7 |
| 20260504232016 | 72 | 163 | 5.0 | 12.0 | 0.00 | 0.00 | 0.00 | 43 | 1009.6 |
| 20260504231016 | 72 | 163 | 5.0 | 11.0 | 0.00 | 0.00 | 0.00 | 42 | 1009.7 |
| 20260504230017 | 73 | 154 | 5.0 | 10.0 | 0.00 | 0.00 | 0.00 | 42 | 1009.7 |
| 20260504225017 | 73 | 163 | 5.0 | 11.0 | 0.00 | 0.00 | 0.00 | 42 | 1009.7 |
| 20260504224017 | 74 | 163 | 6.0 | 14.0 | 0.00 | 0.00 | 0.00 | 41 | 1009.6 |
| 20260504223017 | 75 | 158 | 5.0 | 11.0 | 0.00 | 0.00 | 0.00 | 41 | 1009.6 |
| 20260504222017 | 75 | 168 | 4.0 | 9.0 | 0.00 | 0.00 | 0.00 | 40 | 1009.6 |
| 20260504221058 | 75 | 167 | 5.0 | 10.0 | 0.00 | 0.00 | 0.00 | 40 | 1009.6 |
| 20260504220018 | 76 | 162 | 5.0 | 13.0 | 0.00 | 0.00 | 0.00 | 38 | 1009.5 |
| 20260504215018 | 76 | 163 | 4.0 | 8.0 | 0.00 | 0.00 | 0.00 | 36 | 1009.5 |
| 20260504214018 | 76 | 176 | 6.0 | 13.0 | 0.00 | 0.00 | 0.00 | 36 | 1009.6 |
| 20260504213015 | 76 | 168 | 6.0 | 12.0 | 0.00 | 0.00 | 0.00 | 36 | 1009.6 |
| 20260504212016 | 77 | 165 | 5.0 | 11.0 | 0.00 | 0.00 | 0.00 | 35 | 1009.7 |
| 20260504211036 | 77 | 180 | 5.0 | 10.0 | 0.00 | 0.00 | 0.00 | 35 | 1009.8 |
| 20260504210016 | 76 | 197 | 5.0 | 9.0 | 0.00 | 0.00 | 0.00 | 36 | 1009.8 |
| 20260504205016 | 76 | 184 | 6.0 | 11.0 | 0.00 | 0.00 | 0.00 | 36 | 1009.9 |
| 20260504204036 | 76 | 191 | 6.0 | 11.0 | 0.00 | 0.00 | 0.00 | 36 | 1009.9 |
| 20260504203017 | 76 | 197 | 6.0 | 11.0 | 0.00 | 0.00 | 0.00 | 36 | 1010.1 |
| 20260504202017 | 76 | 184 | 5.0 | 10.0 | 0.00 | 0.00 | 0.00 | 36 | 1010.2 |
| 20260504201017 | 76 | 171 | 6.0 | 11.0 | 0.00 | 0.00 | 0.00 | 35 | 1010.3 |
| 20260504200017 | 76 | 176 | 5.0 | 12.0 | 0.00 | 0.00 | 0.00 | 35 | 1010.4 |
| 20260504195017 | 76 | 191 | 6.0 | 11.0 | 0.00 | 0.00 | 0.00 | 35 | 1010.6 |
| 20260504194017 | 75 | 192 | 6.0 | 10.0 | 0.00 | 0.00 | 0.00 | 36 | 1010.6 |
| 20260504193018 | 75 | 197 | 5.0 | 9.0 | 0.00 | 0.00 | 0.00 | 36 | 1010.8 |
| 20260504192018 | 75 | 179 | 5.0 | 10.0 | 0.00 | 0.00 | 0.00 | 36 | 1010.9 |
| 20260504191018 | 75 | 179 | 5.0 | 12.0 | 0.00 | 0.00 | 0.00 | 36 | 1011.1 |
| 20260504190018 | 75 | 190 | 5.0 | 10.0 | 0.00 | 0.00 | 0.00 | 36 | 1011.2 |
| 20260504185018 | 74 | 199 | 4.0 | 8.0 | 0.00 | 0.00 | 0.00 | 36 | 1011.4 |
| 20260504184015 | 74 | 203 | 6.0 | 10.0 | 0.00 | 0.00 | 0.00 | 37 | 1011.4 |
| 20260504183017 | 73 | 196 | 5.0 | 9.0 | 0.00 | 0.00 | 0.00 | 36 | 1011.6 |
| 20260504182036 | 73 | 195 | 6.0 | 12.0 | 0.00 | 0.00 | 0.00 | 37 | 1011.8 |
| 20260504181016 | 74 | 186 | 5.0 | 11.0 | 0.00 | 0.00 | 0.00 | 36 | 1011.9 |
| 20260504180016 | 73 | 183 | 4.0 | 8.0 | 0.00 | 0.00 | 0.00 | 37 | 1012.1 |
| 20260504175016 | 72 | 201 | 5.0 | 10.0 | 0.00 | 0.00 | 0.00 | 37 | 1012.0 |
| 20260504174016 | 72 | 193 | 5.0 | 11.0 | 0.00 | 0.00 | 0.00 | 36 | 1012.0 |
| 20260504173017 | 73 | 196 | 5.0 | 9.0 | 0.00 | 0.00 | 0.00 | 36 | 1012.1 |
| 20260504172017 | 73 | 166 | 5.0 | 11.0 | 0.00 | 0.00 | 0.00 | 36 | 1012.1 |
| 20260504171017 | 72 | 199 | 5.0 | 12.0 | 0.00 | 0.00 | 0.00 | 35 | 1012.3 |
| 20260504151016 | 67 | 207 | 3.0 | 9.0 | 0.00 | 0.00 | 0.00 | 45 | 1013.7 |
| 20260504141017 | 64 | 184 | 4.0 | 8.0 | 0.00 | 0.00 | 0.00 | 50 | 1013.8 |
| 20260504081017 | 52 | 146 | 2.0 | 4.0 | 0.00 | 0.00 | 0.00 | 77 | 1014.8 |
| 20260504050017 | 43 | 151 | 0.0 | 1.0 | 0.00 | 0.00 | 0.00 | 87 | 1015.0 |
| 20260504045017 | 43 | 108 | 0.0 | 1.0 | 0.00 | 0.00 | 0.00 | 85 | 1015.1 |
| 20260504044017 | 43 | 0.0 | 0.0 | 0.00 | 0.00 | 0.00 | 83 | 1015.1 | |
| 20260504043017 | 43 | 139 | 0.0 | 2.0 | 0.00 | 0.00 | 0.00 | 83 | 1015.0 |
| 20260504042018 | 43 | 0.0 | 0.0 | 0.00 | 0.00 | 0.00 | 83 | 1015.0 | |
| 20260504041018 | 43 | 0.0 | 0.0 | 0.00 | 0.00 | 0.00 | 82 | 1014.9 | |
| 20260504040018 | 43 | 0.0 | 0.0 | 0.00 | 0.00 | 0.00 | 81 | 1014.8 | |
| 20260504035015 | 43 | 0.0 | 0.0 | 0.00 | 0.00 | 0.00 | 79 | 1014.7 | |
| 20260504034015 | 42 | 121 | 0.0 | 1.0 | 0.00 | 0.00 | 0.00 | 81 | 1014.7 |
| 20260504033015 | 42 | 0.0 | 0.0 | 0.00 | 0.00 | 0.00 | 83 | 1014.7 | |
| 20260504032016 | 43 | 94 | 0.0 | 1.0 | 0.00 | 0.00 | 0.00 | 81 | 1014.5 |
| 20260504031016 | 42 | 0.0 | 0.0 | 0.00 | 0.00 | 0.00 | 80 | 1014.4 | |
| 20260504030036 | 43 | 118 | 0.0 | 1.0 | 0.00 | 0.00 | 0.00 | 82 | 1014.5 |
| 20260504025016 | 43 | 107 | 0.0 | 2.0 | 0.00 | 0.00 | 0.00 | 80 | 1014.5 |
| 20260504024017 | 44 | 103 | 0.0 | 1.0 | 0.00 | 0.00 | 0.00 | 78 | 1014.4 |
| 20260504023036 | 44 | 0.0 | 0.0 | 0.00 | 0.00 | 0.00 | 78 | 1014.5 | |
| 20260504022017 | 45 | 127 | 0.0 | 2.0 | 0.00 | 0.00 | 0.00 | 78 | 1014.5 |
| 20260504021017 | 45 | 113 | 0.0 | 2.0 | 0.00 | 0.00 | 0.00 | 75 | 1014.4 |
| 20260504020017 | 45 | 0.0 | 0.0 | 0.00 | 0.00 | 0.00 | 74 | 1014.4 | |
| 20260504015017 | 46 | 0.0 | 0.0 | 0.00 | 0.00 | 0.00 | 74 | 1014.4 | |
| 20260504014017 | 47 | 107 | 0.0 | 2.0 | 0.00 | 0.00 | 0.00 | 70 | 1014.3 |
| 20260504013017 | 47 | 104 | 0.0 | 1.0 | 0.00 | 0.00 | 0.00 | 69 | 1014.2 |
| 20260504012018 | 48 | 0.0 | 0.0 | 0.00 | 0.00 | 0.00 | 68 | 1014.1 | |
| 20260504011018 | 49 | 0.0 | 0.0 | 0.00 | 0.00 | 0.00 | 68 | 1014.1 | |
| 20260504010019 | 50 | 111 | 0.0 | 1.0 | 0.00 | 0.00 | 0.00 | 65 | 1014.0 |
| 20260504005015 | 51 | 0.0 | 0.0 | 0.00 | 0.00 | 0.00 | 60 | 1014.0 |